contact:dominique.lefevre@mio.osupytheas.fr, maurice.libes@osupytheas.fr, didier.mallarino@osupytheas.fr
Project:EMSO http://www.emso-fr.org/EMSO-France
Depth: 2436.0 m
Title:EMSO Ligure Ouest : Data MII capteur CSTAR
DateTime,Latitude,Longitude,Instrument_Serial,Reference_Counts,Signal_Counts,Corrected_Signal_raw_counts,Calculated_Beam_c_inverse_meters,Internal_thermistor_counts
DateTime,Latitude,Longitude,Instrument_Serial,Reference_Counts,Signal_Counts,Corrected_Signal_raw_counts,Calculated_Beam_c_inverse_meters,Internal_thermistor_counts
2019-12-16T00:01:32,42.805,6.029,CST-1368DR,7152,10021,15281,0.087,551
2019-12-16T00:04:33,42.805,6.029,CST-1368DR,7152,10023,15284,0.086,551
2019-12-16T00:10:07,42.805,6.029,CST-1368DR,7152,10024,15286,0.085,551
2019-12-16T00:13:08,42.805,6.029,CST-1368DR,7152,10022,15283,0.086,551
2019-12-16T00:16:10,42.805,6.029,CST-1368DR,7152,10024,15285,0.086,551
2019-12-16T00:19:12,42.805,6.029,CST-1368DR,7152,10024,15286,0.085,551
2019-12-16T00:22:13,42.805,6.029,CST-1368DR,7152,10023,15284,0.086,551
2019-12-16T00:25:15,42.805,6.029,CST-1368DR,7152,10024,15286,0.085,551
2019-12-16T00:28:17,42.805,6.029,CST-1368DR,7152,10024,15285,0.086,551
2019-12-16T00:31:18,42.805,6.029,CST-1368DR,7152,10023,15284,0.086,551
2019-12-16T00:34:20,42.805,6.029,CST-1368DR,7152,10024,15286,0.085,551
2019-12-16T00:37:22,42.805,6.029,CST-1368DR,7152,10024,15285,0.086,551
2019-12-16T00:40:24,42.805,6.029,CST-1368DR,7152,10024,15286,0.085,551
2019-12-16T00:43:25,42.805,6.029,CST-1368DR,7152,10023,15284,0.086,551
2019-12-16T00:46:27,42.805,6.029,CST-1368DR,7152,10023,15284,0.086,551
2019-12-16T00:49:29,42.805,6.029,CST-1368DR,7152,10022,15283,0.086,551
2019-12-16T00:52:30,42.805,6.029,CST-1368DR,7152,10023,15284,0.086,551
2019-12-16T00:55:32,42.805,6.029,CST-1368DR,7152,10023,15285,0.086,551
2019-12-16T00:58:34,42.805,6.029,CST-1368DR,7152,10023,15285,0.086,551
2019-12-16T01:01:35,42.805,6.029,CST-1368DR,7152,10021,15281,0.087,551
2019-12-16T01:04:37,42.805,6.029,CST-1368DR,7152,10022,15282,0.086,551
2019-12-16T01:07:39,42.805,6.029,CST-1368DR,7152,10022,15283,0.086,551
2019-12-16T01:10:40,42.805,6.029,CST-1368DR,7152,10021,15281,0.087,551
2019-12-16T01:13:42,42.805,6.029,CST-1368DR,7152,10021,15282,0.086,551
2019-12-16T01:16:43,42.805,6.029,CST-1368DR,7152,10023,15284,0.086,551
2019-12-16T01:19:45,42.805,6.029,CST-1368DR,7152,10022,15283,0.086,551
2019-12-16T01:22:47,42.805,6.029,CST-1368DR,7152,10022,15283,0.086,551
2019-12-16T01:25:48,42.805,6.029,CST-1368DR,7152,10022,15283,0.086,551
2019-12-16T01:28:50,42.805,6.029,CST-1368DR,7152,10021,15281,0.087,551
2019-12-16T01:31:52,42.805,6.029,CST-1368DR,7152,10019,15278,0.088,551
2019-12-16T01:34:53,42.805,6.029,CST-1368DR,7152,10021,15281,0.087,551
2019-12-16T01:37:55,42.805,6.029,CST-1368DR,7152,10022,15282,0.086,551
2019-12-16T01:40:57,42.805,6.029,CST-1368DR,7152,10022,15283,0.086,551
2019-12-16T01:43:58,42.805,6.029,CST-1368DR,7152,10021,15282,0.086,551
2019-12-16T01:47:00,42.805,6.029,CST-1368DR,7152,10021,15281,0.087,551
2019-12-16T01:50:01,42.805,6.029,CST-1368DR,7152,10018,15277,0.088,551
2019-12-16T01:53:03,42.805,6.029,CST-1368DR,7152,10020,15280,0.087,551
2019-12-16T01:56:05,42.805,6.029,CST-1368DR,7152,10022,15283,0.086,551
2019-12-16T01:59:07,42.805,6.029,CST-1368DR,7152,10020,15280,0.087,551
2019-12-16T02:02:08,42.805,6.029,CST-1368DR,7152,10023,15284,0.086,551
2019-12-16T02:05:10,42.805,6.029,CST-1368DR,7152,10019,15279,0.087,551
2019-12-16T02:08:12,42.805,6.029,CST-1368DR,7152,10021,15281,0.087,550
2019-12-16T02:11:13,42.805,6.029,CST-1368DR,7152,10019,15279,0.087,551
2019-12-16T02:14:15,42.805,6.029,CST-1368DR,7152,10021,15281,0.087,551
2019-12-16T02:17:17,42.805,6.029,CST-1368DR,7152,10021,15281,0.087,551
2019-12-16T02:20:18,42.805,6.029,CST-1368DR,7152,10021,15281,0.087,550
2019-12-16T02:23:20,42.805,6.029,CST-1368DR,7152,10022,15283,0.086,551
2019-12-16T02:26:22,42.805,6.029,CST-1368DR,7151,10022,15284,0.086,551
2019-12-16T02:29:23,42.805,6.029,CST-1368DR,7152,10021,15282,0.086,551
2019-12-16T02:32:25,42.805,6.029,CST-1368DR,7151,10021,15283,0.086,551
2019-12-16T02:35:27,42.805,6.029,CST-1368DR,7151,10021,15283,0.086,551
2019-12-16T02:38:28,42.805,6.029,CST-1368DR,7151,10022,15285,0.086,551
2019-12-16T02:41:30,42.805,6.029,CST-1368DR,7152,10022,15283,0.086,551
2019-12-16T02:44:32,42.805,6.029,CST-1368DR,7151,10021,15283,0.086,551
2019-12-16T02:47:33,42.805,6.029,CST-1368DR,7151,10021,15284,0.086,550
2019-12-16T02:50:35,42.805,6.029,CST-1368DR,7151,10022,15285,0.086,551
2019-12-16T02:53:37,42.805,6.029,CST-1368DR,7151,10021,15284,0.086,551
2019-12-16T02:56:38,42.805,6.029,CST-1368DR,7151,10022,15285,0.086,551
2019-12-16T02:59:40,42.805,6.029,CST-1368DR,7151,10021,15283,0.086,551
2019-12-16T03:02:42,42.805,6.029,CST-1368DR,7151,10020,15282,0.086,551
2019-12-16T03:05:43,42.805,6.029,CST-1368DR,7151,10021,15283,0.086,551
2019-12-16T03:08:45,42.805,6.029,CST-1368DR,7151,10021,15283,0.086,551
2019-12-16T03:11:46,42.805,6.029,CST-1368DR,7151,10020,15281,0.087,551
2019-12-16T03:14:48,42.805,6.029,CST-1368DR,7151,10020,15281,0.087,551
2019-12-16T03:17:50,42.805,6.029,CST-1368DR,7151,10020,15282,0.086,551
2019-12-16T03:20:51,42.805,6.029,CST-1368DR,7151,10015,15274,0.089,551
2019-12-16T03:23:53,42.805,6.029,CST-1368DR,7151,10022,15285,0.086,551
2019-12-16T03:26:55,42.805,6.029,CST-1368DR,7151,10021,15283,0.086,551
2019-12-16T03:29:56,42.805,6.029,CST-1368DR,7151,10021,15283,0.086,551
2019-12-16T03:32:58,42.805,6.029,CST-1368DR,7151,10021,15284,0.086,551
2019-12-16T03:36:00,42.805,6.029,CST-1368DR,7151,10021,15283,0.086,551
2019-12-16T03:39:01,42.805,6.029,CST-1368DR,7151,10022,15285,0.086,550
2019-12-16T03:42:03,42.805,6.029,CST-1368DR,7151,10020,15281,0.087,551
2019-12-16T03:45:05,42.805,6.029,CST-1368DR,7151,10019,15280,0.087,551
2019-12-16T03:48:06,42.805,6.029,CST-1368DR,7151,10018,15278,0.088,551
2019-12-16T03:51:08,42.805,6.029,CST-1368DR,7151,10021,15283,0.086,551
2019-12-16T03:54:09,42.805,6.029,CST-1368DR,7151,10021,15283,0.086,550
2019-12-16T03:57:11,42.805,6.029,CST-1368DR,7151,10021,15283,0.086,551
2019-12-16T04:00:13,42.805,6.029,CST-1368DR,7151,10020,15282,0.086,551
2019-12-16T04:03:14,42.805,6.029,CST-1368DR,7151,10021,15284,0.086,551
2019-12-16T04:06:16,42.805,6.029,CST-1368DR,7151,10022,15284,0.086,551
2019-12-16T04:09:18,42.805,6.029,CST-1368DR,7151,10022,15284,0.086,551
2019-12-16T04:12:19,42.805,6.029,CST-1368DR,7151,10019,15280,0.087,551
2019-12-16T04:15:21,42.805,6.029,CST-1368DR,7151,10018,15278,0.088,550
2019-12-16T04:18:23,42.805,6.029,CST-1368DR,7151,10021,15283,0.086,551
2019-12-16T04:21:24,42.805,6.029,CST-1368DR,7151,10021,15284,0.086,551
2019-12-16T04:24:26,42.805,6.029,CST-1368DR,7151,10019,15280,0.087,551
2019-12-16T04:27:27,42.805,6.029,CST-1368DR,7151,10019,15280,0.087,551
2019-12-16T04:30:29,42.805,6.029,CST-1368DR,7151,10020,15282,0.086,551
2019-12-16T04:33:31,42.805,6.029,CST-1368DR,7151,10021,15283,0.086,551
2019-12-16T04:36:32,42.805,6.029,CST-1368DR,7151,10021,15283,0.086,551
2019-12-16T04:39:34,42.805,6.029,CST-1368DR,7151,10021,15283,0.086,551
2019-12-16T04:42:36,42.805,6.029,CST-1368DR,7151,10021,15283,0.086,551
2019-12-16T04:45:37,42.805,6.029,CST-1368DR,7151,10021,15283,0.086,551
2019-12-16T04:48:39,42.805,6.029,CST-1368DR,7151,10019,15280,0.087,551
2019-12-16T04:51:41,42.805,6.029,CST-1368DR,7151,10019,15281,0.087,551
2019-12-16T04:54:42,42.805,6.029,CST-1368DR,7151,10020,15282,0.086,551
2019-12-16T04:57:44,42.805,6.029,CST-1368DR,7151,10019,15280,0.087,551
2019-12-16T05:00:46,42.805,6.029,CST-1368DR,7151,10018,15278,0.088,551
2019-12-16T05:03:47,42.805,6.029,CST-1368DR,7151,10019,15280,0.087,551
2019-12-16T05:06:49,42.805,6.029,CST-1368DR,7151,10020,15282,0.086,551
2019-12-16T05:09:50,42.805,6.029,CST-1368DR,7151,10020,15282,0.086,551
2019-12-16T05:12:52,42.805,6.029,CST-1368DR,7151,10019,15281,0.087,551
2019-12-16T05:15:54,42.805,6.029,CST-1368DR,7151,10019,15280,0.087,551
2019-12-16T05:18:56,42.805,6.029,CST-1368DR,7151,10020,15282,0.086,551
2019-12-16T05:21:57,42.805,6.029,CST-1368DR,7151,10021,15283,0.086,551
2019-12-16T05:24:59,42.805,6.029,CST-1368DR,7151,10020,15282,0.086,551
2019-12-16T05:28:00,42.805,6.029,CST-1368DR,7151,10017,15277,0.088,551
2019-12-16T05:31:02,42.805,6.029,CST-1368DR,7151,10019,15280,0.087,551
2019-12-16T05:34:04,42.805,6.029,CST-1368DR,7151,10019,15281,0.087,551
2019-12-16T05:37:05,42.805,6.029,CST-1368DR,7151,10018,15278,0.088,551
2019-12-16T05:40:07,42.805,6.029,CST-1368DR,7151,10019,15280,0.087,551
2019-12-16T05:43:09,42.805,6.029,CST-1368DR,7151,10019,15281,0.087,551
2019-12-16T05:46:10,42.805,6.029,CST-1368DR,7151,10020,15282,0.086,551
2019-12-16T05:49:12,42.805,6.029,CST-1368DR,7151,10019,15280,0.087,551
2019-12-16T05:52:14,42.805,6.029,CST-1368DR,7151,10020,15281,0.087,551
2019-12-16T05:55:15,42.805,6.029,CST-1368DR,7151,10017,15277,0.088,551
2019-12-16T05:58:17,42.805,6.029,CST-1368DR,7151,10018,15279,0.087,551
2019-12-16T06:01:19,42.805,6.029,CST-1368DR,7151,10020,15282,0.086,551
2019-12-16T06:04:21,42.805,6.029,CST-1368DR,7151,10020,15282,0.086,551
2019-12-16T06:07:22,42.805,6.029,CST-1368DR,7151,10021,15283,0.086,551
2019-12-16T06:10:24,42.805,6.029,CST-1368DR,7151,10019,15280,0.087,551
2019-12-16T06:13:26,42.805,6.029,CST-1368DR,7151,10021,15283,0.086,551
2019-12-16T06:16:27,42.805,6.029,CST-1368DR,7151,10019,15280,0.087,551
2019-12-16T06:19:29,42.805,6.029,CST-1368DR,7150,10018,15280,0.087,551
2019-12-16T06:22:31,42.805,6.029,CST-1368DR,7151,10020,15282,0.086,551
2019-12-16T06:25:32,42.805,6.029,CST-1368DR,7150,10021,15285,0.086,551
2019-12-16T06:28:34,42.805,6.029,CST-1368DR,7150,10020,15284,0.086,551
2019-12-16T06:31:35,42.805,6.029,CST-1368DR,7150,10016,15277,0.088,551
2019-12-16T06:34:37,42.805,6.029,CST-1368DR,7150,10019,15282,0.086,551
2019-12-16T06:37:39,42.805,6.029,CST-1368DR,7150,10020,15284,0.086,551
2019-12-16T06:40:40,42.805,6.029,CST-1368DR,7150,10015,15277,0.088,551
2019-12-16T06:43:42,42.805,6.029,CST-1368DR,7150,10017,15278,0.088,551
2019-12-16T06:46:44,42.805,6.029,CST-1368DR,7150,10018,15281,0.087,551
2019-12-16T06:49:45,42.805,6.029,CST-1368DR,7150,10018,15281,0.087,551
2019-12-16T06:52:47,42.805,6.029,CST-1368DR,7150,10019,15282,0.086,551
2019-12-16T06:55:48,42.805,6.029,CST-1368DR,7150,10019,15283,0.086,551
2019-12-16T06:58:50,42.805,6.029,CST-1368DR,7150,10019,15282,0.086,550
2019-12-16T07:01:52,42.805,6.029,CST-1368DR,7150,10010,15269,0.090,551
2019-12-16T07:04:53,42.805,6.029,CST-1368DR,7150,10019,15282,0.086,551
2019-12-16T07:07:55,42.805,6.029,CST-1368DR,7150,10019,15282,0.086,551
2019-12-16T07:10:57,42.805,6.029,CST-1368DR,7150,10019,15282,0.086,551
2019-12-16T07:13:58,42.805,6.029,CST-1368DR,7150,10019,15282,0.086,551
2019-12-16T07:17:00,42.805,6.029,CST-1368DR,7150,10018,15281,0.087,551
2019-12-16T07:20:01,42.805,6.029,CST-1368DR,7150,10020,15284,0.086,551
2019-12-16T07:23:03,42.805,6.029,CST-1368DR,7150,10020,15283,0.086,551
2019-12-16T07:26:05,42.805,6.029,CST-1368DR,7150,10020,15283,0.086,551
2019-12-16T07:29:06,42.805,6.029,CST-1368DR,7150,10019,15283,0.086,551
2019-12-16T07:32:08,42.805,6.029,CST-1368DR,7150,10019,15282,0.086,551
2019-12-16T07:35:10,42.805,6.029,CST-1368DR,7150,10019,15282,0.086,551
2019-12-16T07:38:11,42.805,6.029,CST-1368DR,7150,10021,15285,0.086,551
2019-12-16T07:41:13,42.805,6.029,CST-1368DR,7150,10019,15282,0.086,551
2019-12-16T07:44:14,42.805,6.029,CST-1368DR,7150,10020,15283,0.086,551
2019-12-16T07:47:16,42.805,6.029,CST-1368DR,7150,10019,15282,0.086,551
2019-12-16T07:50:18,42.805,6.029,CST-1368DR,7150,10018,15280,0.087,551
2019-12-16T07:53:20,42.805,6.029,CST-1368DR,7150,10018,15281,0.087,551
2019-12-16T07:56:21,42.805,6.029,CST-1368DR,7150,10019,15283,0.086,550
2019-12-16T07:59:23,42.805,6.029,CST-1368DR,7150,10017,15280,0.087,551
2019-12-16T08:02:24,42.805,6.029,CST-1368DR,7150,10019,15283,0.086,551
2019-12-16T08:05:26,42.805,6.029,CST-1368DR,7150,10017,15280,0.087,551
2019-12-16T08:08:28,42.805,6.029,CST-1368DR,7150,10019,15282,0.086,551
2019-12-16T08:11:29,42.805,6.029,CST-1368DR,7150,10017,15278,0.088,551
2019-12-16T08:14:31,42.805,6.029,CST-1368DR,7150,10020,15284,0.086,551
2019-12-16T08:17:33,42.805,6.029,CST-1368DR,7150,10018,15280,0.087,551
2019-12-16T08:20:34,42.805,6.029,CST-1368DR,7150,10018,15281,0.087,551
2019-12-16T08:23:36,42.805,6.029,CST-1368DR,7150,10019,15282,0.086,551
2019-12-16T08:26:37,42.805,6.029,CST-1368DR,7150,10018,15280,0.087,551
2019-12-16T08:29:39,42.805,6.029,CST-1368DR,7150,10018,15281,0.087,551
2019-12-16T08:32:41,42.805,6.029,CST-1368DR,7150,10019,15283,0.086,551
2019-12-16T08:35:42,42.805,6.029,CST-1368DR,7150,10017,15278,0.088,551
2019-12-16T08:38:44,42.805,6.029,CST-1368DR,7150,10017,15279,0.087,551
2019-12-16T08:41:45,42.805,6.029,CST-1368DR,7150,10020,15284,0.086,551
2019-12-16T08:44:47,42.805,6.029,CST-1368DR,7150,10017,15280,0.087,551
2019-12-16T08:47:49,42.805,6.029,CST-1368DR,7150,10017,15280,0.087,551
2019-12-16T08:50:50,42.805,6.029,CST-1368DR,7150,10018,15280,0.087,551
2019-12-16T08:53:52,42.805,6.029,CST-1368DR,7150,10018,15280,0.087,551
2019-12-16T08:56:54,42.805,6.029,CST-1368DR,7150,10015,15277,0.088,551
2019-12-16T08:59:56,42.805,6.029,CST-1368DR,7150,10017,15278,0.088,551
2019-12-16T09:02:57,42.805,6.029,CST-1368DR,7150,10020,15283,0.086,550
2019-12-16T09:05:59,42.805,6.029,CST-1368DR,7150,10018,15280,0.087,551
2019-12-16T09:09:01,42.805,6.029,CST-1368DR,7150,10018,15281,0.087,551
2019-12-16T09:12:02,42.805,6.029,CST-1368DR,7150,10018,15281,0.087,550
2019-12-16T09:15:04,42.805,6.029,CST-1368DR,7150,10020,15284,0.086,551
2019-12-16T09:18:05,42.805,6.029,CST-1368DR,7150,10019,15283,0.086,551
2019-12-16T09:21:07,42.805,6.029,CST-1368DR,7150,10020,15284,0.086,551
2019-12-16T09:24:09,42.805,6.029,CST-1368DR,7150,10019,15282,0.086,551
2019-12-16T09:27:10,42.805,6.029,CST-1368DR,7150,10019,15282,0.086,550
2019-12-16T09:30:12,42.805,6.029,CST-1368DR,7150,10018,15281,0.087,551
2019-12-16T09:33:14,42.805,6.029,CST-1368DR,7150,10020,15284,0.086,551
2019-12-16T09:36:15,42.805,6.029,CST-1368DR,7150,10018,15280,0.087,551
2019-12-16T09:39:17,42.805,6.029,CST-1368DR,7150,10019,15282,0.086,551
2019-12-16T09:42:19,42.805,6.029,CST-1368DR,7150,10018,15281,0.087,551
2019-12-16T09:45:20,42.805,6.029,CST-1368DR,7150,10019,15282,0.086,551
2019-12-16T09:48:22,42.805,6.029,CST-1368DR,7150,10019,15283,0.086,551
2019-12-16T09:51:23,42.805,6.029,CST-1368DR,7150,10019,15282,0.086,551
2019-12-16T09:54:25,42.805,6.029,CST-1368DR,7150,10017,15279,0.087,551
2019-12-16T09:57:27,42.805,6.029,CST-1368DR,7150,10018,15280,0.087,551
2019-12-16T10:00:28,42.805,6.029,CST-1368DR,7150,10019,15282,0.086,551
2019-12-16T10:03:30,42.805,6.029,CST-1368DR,7150,10020,15284,0.086,551
2019-12-16T10:06:32,42.805,6.029,CST-1368DR,7150,10020,15284,0.086,551
2019-12-16T10:09:33,42.805,6.029,CST-1368DR,7150,10019,15282,0.086,551
2019-12-16T10:12:35,42.805,6.029,CST-1368DR,7149,10018,15282,0.086,551
2019-12-16T10:15:37,42.805,6.029,CST-1368DR,7150,10018,15281,0.087,551
2019-12-16T10:18:38,42.805,6.029,CST-1368DR,7149,10019,15284,0.086,551
2019-12-16T10:21:40,42.805,6.029,CST-1368DR,7149,10018,15282,0.086,551
2019-12-16T10:24:42,42.805,6.029,CST-1368DR,7150,10018,15280,0.087,551
2019-12-16T10:27:43,42.805,6.029,CST-1368DR,7149,10018,15283,0.086,551
2019-12-16T10:30:45,42.805,6.029,CST-1368DR,7149,10019,15284,0.086,551
2019-12-16T10:33:46,42.805,6.029,CST-1368DR,7149,10017,15280,0.087,551
2019-12-16T10:36:48,42.805,6.029,CST-1368DR,7149,10019,15284,0.086,550
2019-12-16T10:39:50,42.805,6.029,CST-1368DR,7149,10016,15280,0.087,551
2019-12-16T10:42:51,42.805,6.029,CST-1368DR,7149,10020,15285,0.086,551
2019-12-16T10:45:53,42.805,6.029,CST-1368DR,7149,10018,15283,0.086,551
2019-12-16T10:48:54,42.805,6.029,CST-1368DR,7149,10017,15282,0.086,551
2019-12-16T10:51:56,42.805,6.029,CST-1368DR,7149,10018,15282,0.086,551
2019-12-16T10:54:58,42.805,6.029,CST-1368DR,7149,10017,15282,0.086,551
2019-12-16T10:57:59,42.805,6.029,CST-1368DR,7149,10018,15283,0.086,551
2019-12-16T11:01:01,42.805,6.029,CST-1368DR,7149,10019,15284,0.086,551
2019-12-16T11:04:03,42.805,6.029,CST-1368DR,7149,10018,15283,0.086,551
2019-12-16T11:07:04,42.805,6.029,CST-1368DR,7149,10017,15281,0.087,551
2019-12-16T11:10:06,42.805,6.029,CST-1368DR,7149,10015,15279,0.087,551
2019-12-16T11:13:07,42.805,6.029,CST-1368DR,7149,10018,15283,0.086,551
2019-12-16T11:16:09,42.805,6.029,CST-1368DR,7149,10017,15280,0.087,551
2019-12-16T11:19:11,42.805,6.029,CST-1368DR,7149,10018,15282,0.086,551
2019-12-16T11:22:12,42.805,6.029,CST-1368DR,7149,10018,15282,0.086,551
2019-12-16T11:25:14,42.805,6.029,CST-1368DR,7149,10015,15278,0.088,550
2019-12-16T11:28:16,42.805,6.029,CST-1368DR,7149,10012,15274,0.089,551
2019-12-16T11:31:18,42.805,6.029,CST-1368DR,7149,10018,15283,0.086,551
2019-12-16T11:34:19,42.805,6.029,CST-1368DR,7149,10016,15279,0.087,551
2019-12-16T11:37:21,42.805,6.029,CST-1368DR,7149,10017,15280,0.087,550
2019-12-16T11:40:23,42.805,6.029,CST-1368DR,7149,10015,15279,0.087,551
2019-12-16T11:43:24,42.805,6.029,CST-1368DR,7149,10018,15283,0.086,551
2019-12-16T11:46:26,42.805,6.029,CST-1368DR,7149,10016,15279,0.087,550
2019-12-16T11:49:27,42.805,6.029,CST-1368DR,7149,10016,15280,0.087,551
2019-12-16T11:52:29,42.805,6.029,CST-1368DR,7149,10018,15283,0.086,551
2019-12-16T11:55:31,42.805,6.029,CST-1368DR,7149,10015,15279,0.087,551
2019-12-16T11:58:32,42.805,6.029,CST-1368DR,7149,10018,15282,0.086,551
2019-12-16T12:01:34,42.805,6.029,CST-1368DR,7149,10016,15279,0.087,551
2019-12-16T12:04:36,42.805,6.029,CST-1368DR,7149,10016,15280,0.087,551
2019-12-16T12:07:37,42.805,6.029,CST-1368DR,7149,10016,15279,0.087,551
2019-12-16T12:10:39,42.805,6.029,CST-1368DR,7149,10018,15282,0.086,551
2019-12-16T12:13:40,42.805,6.029,CST-1368DR,7149,10016,15280,0.087,551
2019-12-16T12:16:42,42.805,6.029,CST-1368DR,7149,10016,15279,0.087,551
2019-12-16T12:19:44,42.805,6.029,CST-1368DR,7149,10019,15284,0.086,551
2019-12-16T12:22:45,42.805,6.029,CST-1368DR,7149,10019,15284,0.086,551
2019-12-16T12:25:47,42.805,6.029,CST-1368DR,7149,10018,15282,0.086,551
2019-12-16T12:28:49,42.805,6.029,CST-1368DR,7149,10018,15282,0.086,551
2019-12-16T12:31:50,42.805,6.029,CST-1368DR,7149,10015,15277,0.088,551
2019-12-16T12:34:52,42.805,6.029,CST-1368DR,7149,10015,15279,0.087,551
2019-12-16T12:37:53,42.805,6.029,CST-1368DR,7149,10017,15282,0.086,551
2019-12-16T12:40:55,42.805,6.029,CST-1368DR,7149,10019,15284,0.086,551
2019-12-16T12:43:57,42.805,6.029,CST-1368DR,7149,10017,15282,0.086,551
2019-12-16T12:46:58,42.805,6.029,CST-1368DR,7149,10018,15282,0.086,551
2019-12-16T12:50:00,42.805,6.029,CST-1368DR,7149,10016,15279,0.087,551
2019-12-16T12:53:02,42.805,6.029,CST-1368DR,7149,10017,15282,0.086,551
2019-12-16T12:56:03,42.805,6.029,CST-1368DR,7149,10017,15280,0.087,551
2019-12-16T12:59:05,42.805,6.029,CST-1368DR,7149,10018,15283,0.086,551
2019-12-16T13:02:06,42.805,6.029,CST-1368DR,7149,10015,15278,0.088,551
2019-12-16T13:05:08,42.805,6.029,CST-1368DR,7149,10018,15282,0.086,551
2019-12-16T13:08:10,42.805,6.029,CST-1368DR,7149,10018,15282,0.086,551
2019-12-16T13:11:11,42.805,6.029,CST-1368DR,7149,10017,15282,0.086,550
2019-12-16T13:14:13,42.805,6.029,CST-1368DR,7149,10017,15280,0.087,551
2019-12-16T13:17:15,42.805,6.029,CST-1368DR,7149,10015,15279,0.087,551
2019-12-16T13:20:16,42.805,6.029,CST-1368DR,7149,10016,15279,0.087,551
2019-12-16T13:23:18,42.805,6.029,CST-1368DR,7149,10018,15282,0.086,551
2019-12-16T13:26:19,42.805,6.029,CST-1368DR,7149,10017,15280,0.087,550
2019-12-16T13:29:21,42.805,6.029,CST-1368DR,7149,10016,15280,0.087,551
2019-12-16T13:32:23,42.805,6.029,CST-1368DR,7149,10016,15279,0.087,551
2019-12-16T13:35:24,42.805,6.029,CST-1368DR,7149,10015,15277,0.088,551
2019-12-16T13:38:26,42.805,6.029,CST-1368DR,7149,10016,15279,0.087,551
2019-12-16T13:41:28,42.805,6.029,CST-1368DR,7149,10016,15280,0.087,551
2019-12-16T13:44:29,42.805,6.029,CST-1368DR,7149,10018,15282,0.086,551
2019-12-16T13:47:31,42.805,6.029,CST-1368DR,7149,10018,15283,0.086,551
2019-12-16T13:50:32,42.805,6.029,CST-1368DR,7149,10017,15280,0.087,551
2019-12-16T13:53:34,42.805,6.029,CST-1368DR,7149,10017,15281,0.087,551
2019-12-16T13:56:36,42.805,6.029,CST-1368DR,7149,10013,15275,0.088,551
2019-12-16T13:59:37,42.805,6.029,CST-1368DR,7148,10017,15283,0.086,551
2019-12-16T14:02:39,42.805,6.029,CST-1368DR,7148,10016,15282,0.086,551
2019-12-16T14:05:40,42.805,6.029,CST-1368DR,7148,10017,15283,0.086,551
2019-12-16T14:08:42,42.805,6.029,CST-1368DR,7149,10016,15279,0.087,551
2019-12-16T14:11:44,42.805,6.029,CST-1368DR,7148,10015,15279,0.087,551
2019-12-16T14:14:45,42.805,6.029,CST-1368DR,7148,10017,15283,0.086,551
2019-12-16T14:17:47,42.805,6.029,CST-1368DR,7148,10018,15285,0.086,550
2019-12-16T14:20:49,42.805,6.029,CST-1368DR,7149,10016,15279,0.087,551
2019-12-16T14:23:50,42.805,6.029,CST-1368DR,7148,10016,15281,0.087,551
2019-12-16T14:26:52,42.805,6.029,CST-1368DR,7148,10017,15283,0.086,551
2019-12-16T14:29:54,42.805,6.029,CST-1368DR,7148,10017,15283,0.086,550
2019-12-16T14:32:56,42.805,6.029,CST-1368DR,7148,10016,15281,0.087,551
2019-12-16T14:35:58,42.805,6.029,CST-1368DR,7148,10017,15282,0.086,551
2019-12-16T14:38:59,42.805,6.029,CST-1368DR,7148,10017,15282,0.086,550
2019-12-16T14:42:01,42.805,6.029,CST-1368DR,7148,10012,15276,0.088,551
2019-12-16T14:45:02,42.805,6.029,CST-1368DR,7148,10018,15285,0.086,551
2019-12-16T14:48:04,42.805,6.029,CST-1368DR,7148,10017,15284,0.086,551
2019-12-16T14:51:06,42.805,6.029,CST-1368DR,7148,10016,15281,0.087,551
2019-12-16T14:54:07,42.805,6.029,CST-1368DR,7148,10016,15281,0.087,551
2019-12-16T14:57:09,42.805,6.029,CST-1368DR,7148,10016,15282,0.086,551
2019-12-16T15:00:11,42.805,6.029,CST-1368DR,7148,10016,15281,0.087,551
2019-12-16T15:03:12,42.805,6.029,CST-1368DR,7148,10016,15281,0.087,551
2019-12-16T15:06:14,42.805,6.029,CST-1368DR,7148,10017,15284,0.086,550
2019-12-16T15:09:15,42.805,6.029,CST-1368DR,7148,10016,15281,0.087,551
2019-12-16T15:12:17,42.805,6.029,CST-1368DR,7148,10016,15281,0.087,551
2019-12-16T15:15:19,42.805,6.029,CST-1368DR,7148,10017,15284,0.086,551
2019-12-16T15:18:20,42.805,6.029,CST-1368DR,7148,10017,15283,0.086,550
2019-12-16T15:21:22,42.805,6.029,CST-1368DR,7148,10013,15277,0.088,551
2019-12-16T15:24:23,42.805,6.029,CST-1368DR,7148,10017,15284,0.086,551
2019-12-16T15:27:25,42.805,6.029,CST-1368DR,7148,10018,15284,0.086,551
2019-12-16T15:30:27,42.805,6.029,CST-1368DR,7148,10014,15279,0.087,551
2019-12-16T15:33:28,42.805,6.029,CST-1368DR,7148,10017,15283,0.086,551
2019-12-16T15:36:30,42.805,6.029,CST-1368DR,7148,10017,15282,0.086,551
2019-12-16T15:39:32,42.805,6.029,CST-1368DR,7148,10017,15283,0.086,551
2019-12-16T15:42:33,42.805,6.029,CST-1368DR,7148,10016,15281,0.087,551
2019-12-16T15:45:35,42.805,6.029,CST-1368DR,7148,10015,15280,0.087,551
2019-12-16T15:48:37,42.805,6.029,CST-1368DR,7148,10016,15282,0.086,551
2019-12-16T15:51:38,42.805,6.029,CST-1368DR,7148,10015,15280,0.087,551
2019-12-16T15:54:40,42.805,6.029,CST-1368DR,7148,10017,15282,0.086,551
2019-12-16T15:57:42,42.805,6.029,CST-1368DR,7148,10015,15281,0.087,551
2019-12-16T16:00:43,42.805,6.029,CST-1368DR,7148,10014,15279,0.087,551
2019-12-16T16:03:45,42.805,6.029,CST-1368DR,7148,10017,15283,0.086,551
2019-12-16T16:06:46,42.805,6.029,CST-1368DR,7148,10017,15282,0.086,551
2019-12-16T16:09:48,42.805,6.029,CST-1368DR,7148,10014,15278,0.088,551
2019-12-16T16:12:50,42.805,6.029,CST-1368DR,7148,10015,15281,0.087,551
2019-12-16T16:15:51,42.805,6.029,CST-1368DR,7148,10016,15282,0.086,551
2019-12-16T16:18:53,42.805,6.029,CST-1368DR,7148,10014,15279,0.087,551
2019-12-16T16:21:55,42.805,6.029,CST-1368DR,7148,10012,15275,0.088,551
2019-12-16T16:24:56,42.805,6.029,CST-1368DR,7148,10012,15276,0.088,551
2019-12-16T16:27:58,42.805,6.029,CST-1368DR,7148,10016,15281,0.087,551
2019-12-16T16:30:59,42.805,6.029,CST-1368DR,7148,10015,15280,0.087,551
2019-12-16T16:34:01,42.805,6.029,CST-1368DR,7148,10017,15283,0.086,551
2019-12-16T16:37:03,42.805,6.029,CST-1368DR,7148,10016,15282,0.086,551
2019-12-16T16:40:04,42.805,6.029,CST-1368DR,7148,10017,15282,0.086,551